TimeCDT,TemperatureF,Dew PointF,Humidity,Sea Level PressureIn,VisibilityMPH,Wind Direction,Wind SpeedMPH,Gust SpeedMPH,PrecipitationIn,Events,Conditions,WindDirDegrees,DateUTC
12:53 AM,73.0,70.0,90,29.85,10.0,East,5.8,-,N/A,,Mostly Cloudy,90,2013-08-09 05:53:00
1:10 AM,73.4,71.6,94,29.89,10.0,East,4.6,-,N/A,Thunderstorm,Thunderstorm,80,2013-08-09 06:10:00
1:53 AM,73.9,71.1,91,29.89,10.0,NNW,21.9,26.5,N/A,Thunderstorm,Mostly Cloudy,330,2013-08-09 06:53:00
2:00 AM,73.4,71.6,94,29.95,10.0,WNW,11.5,26.5,N/A,,Mostly Cloudy,300,2013-08-09 07:00:00
2:06 AM,73.4,71.6,94,29.95,10.0,NW,12.7,-,0.00,Rain-Thunderstorm,Light Thunderstorms and Rain,310,2013-08-09 07:06:00
2:23 AM,73.4,71.6,94,29.95,10.0,NNW,11.5,20.7,0.02,Rain-Thunderstorm,Light Thunderstorms and Rain,340,2013-08-09 07:23:00
2:53 AM,73.0,71.1,93,29.89,6.0,NE,6.9,-,0.10,Rain-Thunderstorm,Light Rain,50,2013-08-09 07:53:00
3:20 AM,71.6,71.6,100,29.91,10.0,ENE,6.9,-,0.03,Rain,Light Rain,60,2013-08-09 08:20:00
3:36 AM,73.4,71.6,94,29.96,10.0,North,5.8,-,0.03,Thunderstorm,Mostly Cloudy,360,2013-08-09 08:36:00
3:48 AM,73.4,71.6,94,29.99,10.0,NW,15.0,23.0,0.04,Rain-Thunderstorm,Light Rain,320,2013-08-09 08:48:00
3:53 AM,73.0,71.1,93,29.92,4.0,NNE,16.1,23.0,0.12,Rain-Thunderstorm,Heavy Rain,20,2013-08-09 08:53:00
3:58 AM,73.4,71.6,94,29.96,3.0,NNE,11.5,21.9,0.03,Rain-Thunderstorm,Heavy Rain,30,2013-08-09 08:58:00
4:46 AM,71.6,71.6,100,29.93,10.0,Variable,6.9,-,0.16,,Scattered Clouds,0,2013-08-09 09:46:00
4:53 AM,72.0,71.1,97,29.91,10.0,ENE,4.6,-,0.16,,Mostly Cloudy,60,2013-08-09 09:53:00
5:53 AM,72.0,69.1,91,29.98,10.0,NW,9.2,-,N/A,,Scattered Clouds,310,2013-08-09 10:53:00
6:31 AM,71.6,69.8,94,29.99,10.0,NNE,6.9,-,N/A,,Mostly Cloudy,30,2013-08-09 11:31:00
6:51 AM,71.6,69.8,94,29.98,10.0,ENE,4.6,-,N/A,,Scattered Clouds,70,2013-08-09 11:51:00
6:53 AM,71.1,69.1,93,29.95,10.0,East,6.9,-,N/A,,Scattered Clouds,80,2013-08-09 11:53:00
7:53 AM,70.0,68.0,93,29.94,10.0,ESE,8.1,16.1,0.01,,Mostly Cloudy,110,2013-08-09 12:53:00
8:53 AM,73.0,70.0,90,29.95,10.0,ESE,5.8,-,N/A,,Mostly Cloudy,110,2013-08-09 13:53:00
9:53 AM,77.0,70.0,79,29.92,10.0,ESE,11.5,19.6,N/A,,Scattered Clouds,110,2013-08-09 14:53:00
10:53 AM,80.1,71.1,74,29.93,10.0,SE,8.1,-,N/A,,Clear,130,2013-08-09 15:53:00
11:53 AM,84.0,72.0,67,29.94,10.0,South,5.8,-,N/A,,Clear,180,2013-08-09 16:53:00
12:53 PM,86.0,71.1,61,29.94,10.0,WSW,11.5,-,N/A,,Clear,240,2013-08-09 17:53:00
1:53 PM,88.0,73.0,61,29.93,10.0,WSW,4.6,-,N/A,,Clear,240,2013-08-09 18:53:00
2:53 PM,90.0,73.0,57,29.92,10.0,North,8.1,-,N/A,,Partly Cloudy,350,2013-08-09 19:53:00
3:53 PM,89.1,73.0,59,29.92,10.0,NNW,8.1,-,N/A,,Mostly Cloudy,330,2013-08-09 20:53:00
4:53 PM,89.1,73.0,59,29.91,10.0,NNW,6.9,-,N/A,,Scattered Clouds,340,2013-08-09 21:53:00
5:53 PM,87.1,73.9,65,29.91,10.0,NE,8.1,-,N/A,,Mostly Cloudy,50,2013-08-09 22:53:00
6:53 PM,84.0,73.0,69,29.94,10.0,NNE,8.1,17.3,N/A,,Mostly Cloudy,30,2013-08-09 23:53:00
7:53 PM,82.9,73.0,72,29.96,10.0,NNE,10.4,-,N/A,,Clear,30,2013-08-10 00:53:00
8:53 PM,81.0,73.0,77,29.95,10.0,NNE,5.8,-,N/A,,Clear,30,2013-08-10 01:53:00
9:53 PM,80.1,73.0,79,29.98,10.0,Calm,Calm,-,N/A,,Mostly Cloudy,0,2013-08-10 02:53:00
10:53 PM,80.1,72.0,76,29.99,10.0,North,-9999.0,-,N/A,,Overcast,0,2013-08-10 03:53:00
11:53 PM,79.0,73.0,82,30.00,10.0,Calm,Calm,-,N/A,,Mostly Cloudy,0,2013-08-10 04:53:00